Orbital Elements at Epoch 2459000.5 (2020-May-31.0) TDB
Reference: JPL 13 (heliocentric ecliptic J2000)
Element | Value | Uncertainty (1-sigma) | Units |
e | .1987799150047077 | 7.1619e-08 | |
a | 2.397980509931351 | 1.5156e-08 | au |
q | 1.921310147984251 | 1.7402e-07 | au |
i | 1.912953991863223 | 6.4925e-06 | deg |
node | 237.9597438048027 | 0.00020261 | deg |
peri | 158.4565897387684 | 0.00020314 | deg |
M | 172.45431977897 | 1.6864e-05 | deg |
tp | 2458350.761686297353 (2018-Aug-20.26168630) | 6.0062e-05 | TDB |
period | 1356.334786120427 3.71 | 1.2858e-05 3.52e-08 | d yr |
n | .2654211951827328 | 2.5162e-09 | deg/d |
Q | 2.87465087187845 | 1.8168e-08 | au |
|
| | Orbit Determination Parameters
Additional Information
|